User: anonymous   Login
Location: Caltech
(34.1382°N, 118.1253°W)
Time: 21:50:14
(UTC-08:00)
Language:

Cosmos 1975 - Orbit

View from above orbital plane
View from above orbital plane
View from above satellite
View from above satellite

Ground track
Ground track

The orbit data is extracted from the following two-line orbital elements,

1 19573U 88093A   17021.44602313  .00000566  00000-0  38788-4 0  9992
2 19573  82.5223 127.4443 0015859  80.4676 279.8342 15.04022481537752
Epoch (UTC): 21 January 2017 10:42:16
Eccentricity: 0.0015859
inclination: 82.5223°
perigee height: 543 km
apogee height: 565 km
right ascension of ascending node: 127.4443°
argument of perigee: 80.4676°
revolutions per day: 15.04022481
mean anomaly at epoch: 279.8342°
orbit number at epoch: 53775

The dashed part of the orbit path shows where the satellite is in the earth's shadow,  

DLR